Reid Restricted Landing Area

Jump to: basic info | weather | runways | comments

Related pages: nearby airports | nearby navaids | notams | map

Basic information (top)

Codes: 6IL6
Location: lon 42.118401, lat -88.407898, elev 920 ft / 280 m msl
Status: small_airport

Weather (top)

Current conditions for Dupage Airport 15nm (27km) SSE (rec'd 2014/09/02 03:52Z):

KDPA 020352Z AUTO 24007KT 10SM FEW043 OVC055 22/20 A2986 RMK AO2 SLP106 T02220200

Airport forecast for Dupage Airport 15nm (27km) SSE (rec'd 2014/09/01 00:39Z):

TAF KDPA 012338Z 0200/0224 23008KT P6SM SCT045 
      TEMPO 0202/0203 -SHRA 
     FM020300 28005KT P6SM BKN150 
     FM021700 25006KT P6SM FEW050 FEW250

Runways (top)

E/W: 3,000 x 105 ft (914 x 32 m) — grass — not lighted

N/S: 2,100 x 105 ft (640 x 32 m) — grass — not lighted

Latest comments (top)

No comments yet for Reid Restricted Landing Area

More... (top)

See also NOTAMs and nearby airports and navaids, or visit the Reid Restricted Landing Area page at the main OurAirports website..